COSMOS 1261 DEB, 12892

Orbit data source: Space-Track

COSMOS 1261 DEB, 12892 is space debris originally from a launch on Tue, 31 Mar 1981 UTC launched from the Plesetsk Missile And Space Complex (PKMTR). Debris objects in space refer to the collection of defunct objects orbiting the Earth. Examples of debris include non-operational satellites, rocket bodies, and fragments generated from explosions, collisions, or faulty payload assembly.

Loading next visibility...
Identifier
12892, 1981-031E
Orbit
Molniya
Country
Flag of CISCIS
Related business
Manufacturer
Unknown
Mission
Spacecraft
Bus & Motor
Unknown
Mass
Unknown
Launch date (UTC)
1981-03-31 (45 years ago)
Launch vehicle
Unknown
Launch site
Plesetsk Missile And Space Complex (PKMTR)
Object type
Payload
Rocket body
Debris
Shape & HBR
Unknown shape, 1.1 m
Radar Cross Section
Large (>1 m²)

Expand to show TLE details & history
Last TLE update: 19 hours ago

TLE from 19 hours ago
0 COSMOS 1261 DEB
1 12892U 81031E   25310.03296538  .00001136  00000-0  11139-2 0  9990
2 12892  62.1427 122.1925 7456703  43.2614 355.4516  2.00183058254939
Epoch: 2025-11-06T00:47Z
TLE epoch observation values (Epoch: 2025-11-06T00:47:28.208Z)
Latitude
-0.00022°
Longitude
64.7194°
Altitude
1,276.38 km
Speed
9.443 km/s
True Right ascension
08h 08m 20s
True Declination
0° 00' 01"
Sunlit
Object was in daylight at epoch
Visualization orbit readout
Latitude
Unknown
Longitude
Unknown
Altitude
Unknown
Speed
Unknown
Apparent Right ascension
Unknown
Apparent Declination
Unknown
Sunlit
N/A
Visualization observer readout
Local Sidereal Time
15:26:16
Azimuth
Unknown
Elevation
Unknown
Doppler factor
Unknown
Orbital elements
Apogee altitude
40,044.558 km
Perigee altitude
385.265 km
Semi-major axis
26,593.049 km
Eccentricity
0.74567
Inclination
62.1427°
RAAN
122.1925°
Arg. of periapsis
43.2614°
True anomaly
316.91477°
Mean anomaly
355.4516°
Eccentric anomaly
342.86204°
Mean motion
0.50048 °/min
Orbital period
719.3 mins
BSTAR
0.0011139
Loading maneuver chart data...
Computing Atmospheric mass density...
Loading historical data...
Loading historical data...
Loading historical data...
Loading historical data...
Loading historical data...
Loading historical data...
Loading historical data...

Documentation

Showing up to 5 results
|